Regional Weather Roundup
Issued by NWS

Home | Current Version | Previous Version | Text Only | Print | Product List | Glossary Off
Versions: 1 2 3 4 5 6 7 8 9 10 11 12 13 14 15 16 17 18 19 20 21 22 23 24 25 26 27 28 29 30 31 32 33 34 35 36 37 38 39 40 41 42 43 44 45 46 47 48 49 50

000
ASUS43 KBIS 142220
RWRND

NORTH DAKOTA REGIONAL WEATHER ROUNDUP
NATIONAL WEATHER SERVICE BISMARCK ND
500 PM CDT SUN SEP 14 2014

NOTE: "FAIR" INDICATES FEW OR NO CLOUDS BELOW 12,000 FEET WITH NO
SIGNIFICANT WEATHER AND/OR OBSTRUCTIONS TO VISIBILITY.


NDZ001>003-009>011-017-142300-
NORTHWEST NORTH DAKOTA

CITY           SKY/WX    TMP DP  RH WIND       PRES   REMARKS
WILLISTON      CLOUDY    57  31  37 E5        30.15S
MINOT          CLOUDY    56  33  42 NW5       30.13S
MINOT AFB      CLOUDY    55  32  42 N9        30.13S
$$

NDZ018>021-031>035-040>046-142300-
SOUTHWEST NORTH DAKOTA

CITY           SKY/WX    TMP DP  RH WIND       PRES   REMARKS
BISMARCK       MOSUNNY   60  33  36 N9        30.14S
DICKINSON      CLOUDY    54  29  38 CALM      30.13S
GARRISON         N/A     56  33  42 N12       30.13S
HETTINGER ARPT PTSUNNY   57  28  33 VRB3      30.13F
$$

NDZ004>008-012>016-024-026-027-054-142300-
NORTHEAST NORTH DAKOTA

CITY           SKY/WX    TMP DP  RH WIND       PRES   REMARKS
GRAND FORKS    PTSUNNY   57  43  59 N7        30.10R
GRND FRKS AFB  CLOUDY    57  38  50 NW12      30.11R
DEVILS LAKE    CLOUDY    54  34  47 NW8       30.10F
$$

NDZ022-023-025-028>030-036>039-047>053-142300-
SOUTHEAST NORTH DAKOTA

CITY           SKY/WX    TMP DP  RH WIND       PRES   REMARKS
FARGO          PTSUNNY   59  41  51 MISG      30.11R
JAMESTOWN      MOSUNNY   57  40  52 N5        30.11F
$$




USA.gov is the U.S. government's official web portal to all federal, state and local government web resources and services.